SCP
0 0 0 0 0 0 0 0 -0 -0 -0 -0 -0 -0 -0 -0 -0 -0 0 0 0 0 -0 0 0 0 0 0 0 -0 0 0 0 0 0 0 1 1 0 0 0 0 0 0 -0
0 0 0 0 0 0 0 0 0 -0 -0 -0 -0 -0 -0 -0 0 0 -0 -0 0 -0 0 -0 0 0 0 -0 -0 0 0 0 0 0 0 1 1 1 1 0 0 0 0 0 -0
0 0 0 0 0 0 0 0 0 0 0 -0 -0 -0 -0 -0 -0 -0 -0 -0 0 -0 -0 -0 0 0 0 0 -0 -0 0 0 0 0 0 1 1 0 0 0 0 0 0 0 0
0 0 0 0 0 0 0 0 0 0 0 0 0 -0 -0 0 -0 0 -0 0 0 0 -0 -0 0 0 0 -0 -0 0 0 0 0 0 1 1 1 0 0 -0 0 0 -0 0 0
0 0 0 0 0 0 0 0 0 0 0 0 0 0 0 0 -0 0 -0 0 -0 0 0 -0 0 0 0 0 -0 0 0 0 0 0 0 1 1 0 0 0 0 0 -0 -0 -0
0 0 0 0 0 0 0 0 0 0 0 0 0 0 0 0 0 0 -0 0 0 -0 -0 0 0 0 0 0 -0 -0 0 0 0 0 1 1 1 1 0 0 0 0 -0 -0 0
0 0 0 0 0 0 0 0 0 0 0 0 0 -0 -0 0 0 0 0 0 0 -0 -0 -0 0 0 0 0 0 0 0 0 0 0 1 0 0 0 0 0 0 0 0 0 -0
0 0 0 0 0 0 0 0 0 0 0 0 0 -0 0 0 0 0 0 0 0 -0 -0 -0 -0 0 0 0 -0 -0 0 0 0 0 1 0 0 0 0 0 0 0 0 0 -0
0 0 0 0 0 0 0 0 0 0 0 0 0 0 0 0 0 0 0 0 0 0 0 0 0 -0 -0 -0 0 0 0 0 0 0 0 0 0 0 0 0 0 0 0 0 0
0 0 0 0 0 0 0 0 0 0 0 0 0 0 0 0 0 0 0 0 0 0 0 0 -0 0 0 0 -0 0 0 0 0 -0 0 0 0 -0 0 0 0 0 0 0 0
0 0 0 0 0 0 0 0 0 0 0 0 0 0 0 0 0 0 0 0 0 0 0 0 0 -0 0 0 0 0 0 0 -0 -0 0 -0 0 -0 -0 0 0 0 0 0 0
0 0 0 0 0 0 0 0 0 -0 0 0 0 0 0 0 0 0 0 0 0 0 0 0 -0 -0 -0 0 0 0 0 -0 -0 0 -0 0 0 -0 -0 -0 0 0 0 0 0
0 0 0 0 0 0 0 0 0 0 0 0 0 0 0 0 0 0 0 0 0 0 0 -0 -0 -0 0 0 0 -0 0 -0 -0 -0 0 0 0 0 0 0 0 0 0 0 0
0 0 0 0 0 0 0 0 0 -0 0 0 0 0 0 0 0 0 0 0 0 0 0 0 -0 -0 0 0 -0 0 0 -0 0 0 0 0 0 0 0 0 0 0 0 -0 0
0 0 0 0 0 0 0 0 0 0 0 0 0 0 0 0 0 0 0 0 0 0 0 0 -0 0 -0 -0 0 0 0 0 0 0 0 0 0 0 0 0 1 0 -0 0 0
0 0 0 -0 0 0 0 0 0 0 0 0 0 0 0 0 0 0 0 0 0 0 0 -0 -0 0 -0 -0 -0 0 0 0 0 0 0 0 0 0 0 0 0 0 0 0 0
0 0 0 0 0 0 0 0 0 0 0 0 0 -0 0 0 0 0 0 0 0 0 0 0 0 0 -0 -0 -0 0 0 0 0 0 0 0 0 0 0 0 0 1 1 0 0
0 0 -0 0 0 0 0 0 0 0 0 0 0 0 0 0 0 0 0 0 0 0 0 0 0 0 0 -0 0 0 0 0 0 0 0 0 0 0 0 0 0 0 0 0 0
0 0 0 0 0 0 0 0 0 0 0 0 0 0 0 0 0 0 0 0 0 0 0 0 0 0 0 0 0 -0 0 0 0 0 0 0 0 0 0 0 0 0 0 0 0
0 0 0 0 0 0 0 0 0 0 0 0 0 0 0 0 0 0 0 0 0 0 0 0 0 0 0 0 0 0 0 0 0 0 0 0 0 0 0 0 0 0 0 0 0
0 0 0 0 0 0 0 0 0 0 0 0 0 0 0 0 -0 -0 0 0 0 0 0 0 0 0 0 0 0 0 0 0 0 0 0 0 0 0 0 0 0 0 -0 0 1
0 0 0 0 0 0 0 0 0 0 0 0 -0 0 0 0 0 0 0 0 0 0 0 0 0 0 0 0 0 0 0 0 0 0 0 0 0 0 0 0 0 0 -0 0 0
0 0 0 0 0 0 0 0 0 0 0 0 0 0 0 0 0 0 0 0 0 0 -0 0 0 0 0 0 0 0 0 0 0 0 0 0 0 0 0 0 0 0 0 0 0
0 0 0 0 0 0 0 0 0 0 0 0 0 0 0 0 0 0 0 0 0 -0 0 0 0 0 0 0 0 0 0 0 0 0 0 0 0 0 0 0 0 0 0 0 0
0 0 0 0 0 0 0 0 0 0 0 0 0 0 0 0 0 0 0 0 0 -0 0 0 0 0 0 0 0 0 0 0 0 0 0 0 0 0 0 0 0 0 0 0 0
0 0 0 0 0 0 0 0 0 0 0 0 0 0 0 0 0 0 0 0 0 0 -0 0 0 0 0 0 0 0 0 0 0 0 0 0 0 0 0 0 0 0 0 0 0
0 0 0 0 0 0 0 0 0 0 0 0 0 0 0 0 0 0 0 0 0 0 0 0 0 0 0 0 0 0 0 0 0 0 0 0 0 0 0 0 0 0 0 0 0
Wind_Speed_500mb
22 23 23 22 24 24 25 25 23 18 18 15 15 17 18 22 26 34 43 29 14 17 19 21 25 29 28 9 17 11 8 2 7 7 7 31 14 13 7 30 4 12 18 47 54
24 25 25 24 24 25 26 25 25 20 18 16 15 16 19 21 27 39 34 26 27 23 23 28 34 39 19 4 6 8 7 13 9 11 11 22 34 24 11 12 20 37 42 56 49
27 26 26 26 25 26 27 26 25 24 19 19 17 16 17 18 24 27 22 24 27 23 20 26 28 19 10 10 8 9 11 7 5 21 45 34 28 15 34 5 35 53 62 56 51
28 29 28 27 26 26 28 27 26 23 22 19 19 17 16 13 8 3 5 14 19 18 20 21 18 23 8 10 10 8 10 12 17 33 32 20 27 22 10 18 44 50 56 56 54
27 27 28 28 28 27 28 28 27 24 22 20 21 17 16 13 20 6 4 5 5 13 18 16 21 9 9 14 9 6 13 13 27 40 39 45 34 15 22 41 47 51 55 52 48
26 27 28 29 29 28 28 28 27 24 20 20 21 18 16 10 16 15 9 4 7 11 16 13 13 27 16 13 1 9 14 25 29 33 33 29 27 14 29 48 45 51 54 50 44
29 28 28 29 29 29 29 30 27 24 21 18 22 24 25 38 14 25 15 7 3 6 11 15 20 21 28 13 16 33 11 6 11 19 12 54 0 14 51 55 51 52 51 50 44
31 31 30 31 31 29 29 28 26 22 20 17 19 23 22 17 33 26 18 12 9 9 13 13 27 27 6 16 11 16 10 6 7 10 31 4 7 14 56 59 51 49 50 53 53
31 31 31 32 32 29 27 27 21 20 18 18 17 14 23 14 24 28 20 14 12 11 13 14 18 6 7 6 9 11 10 8 4 17 11 4 8 29 54 54 51 50 51 58 55
32 32 32 33 33 29 25 24 15 18 15 18 21 14 19 7 10 29 29 20 14 15 7 3 4 7 8 9 4 5 3 4 12 20 15 13 10 32 51 49 49 52 51 61 61
33 33 32 32 32 29 23 13 9 4 19 24 27 32 51 30 26 22 28 27 21 9 3 8 9 12 15 11 8 5 7 13 17 15 17 30 13 40 49 44 39 45 50 60 70
35 36 35 32 30 24 17 13 16 16 25 34 41 51 55 52 20 12 26 13 11 8 4 9 8 15 4 5 5 5 10 24 15 12 29 16 11 34 41 51 45 40 51 61 48
36 36 35 32 27 13 10 11 24 24 9 26 29 32 34 18 17 20 20 26 7 10 8 12 15 11 5 12 13 6 8 19 17 10 7 14 6 14 17 18 32 39 64 55 57
37 37 37 31 15 11 6 18 26 1 8 14 8 13 27 17 11 30 29 25 3 20 13 11 9 11 10 14 10 15 6 20 7 9 9 7 5 13 11 18 23 48 64 72 64
37 37 36 32 29 15 12 15 11 2 6 4 7 2 25 23 2 14 22 35 16 11 13 15 6 2 10 17 10 23 14 17 26 13 11 2 9 10 10 13 14 38 66 76 58
38 36 38 34 27 13 9 7 4 11 12 12 7 5 9 3 1 4 16 12 11 6 3 12 1 4 9 7 11 18 14 11 9 8 5 7 8 6 8 16 9 26 42 20 29
41 33 38 34 19 7 6 1 9 6 12 13 6 2 6 1 3 6 5 7 11 8 9 16 14 9 5 15 4 8 12 6 7 9 10 11 10 12 17 8 4 24 30 30 32
41 37 35 35 26 16 5 9 6 5 12 8 10 1 12 11 7 6 6 3 2 10 6 12 15 13 6 14 15 11 15 10 10 8 5 9 6 3 10 11 23 32 42 40 36
39 37 34 24 24 27 13 6 14 11 8 15 17 12 12 8 3 5 13 13 14 16 16 10 13 6 6 4 11 5 6 7 14 7 8 4 2 5 7 5 14 15 33 28 31
38 35 21 18 23 38 8 10 9 9 8 9 6 4 10 7 6 10 14 11 13 21 16 13 9 10 11 2 5 11 9 6 6 8 4 8 6 10 9 15 13 15 27 37 34
27 17 13 26 33 25 8 12 9 21 6 5 3 11 9 9 12 13 13 10 14 13 22 14 9 16 5 6 10 8 3 10 11 7 11 7 11 10 18 22 25 24 42 30 20
11 4 6 47 9 6 6 12 9 9 8 13 9 19 11 7 12 10 19 16 33 23 21 19 12 15 22 11 10 10 17 17 9 8 3 8 9 8 20 25 21 37 39 23 18
21 8 19 34 5 3 7 6 7 7 9 8 8 11 7 9 7 12 7 17 48 18 20 16 3 7 22 15 5 9 5 9 12 7 12 12 7 5 10 15 24 24 26 30 28
8 4 8 27 6 6 5 9 7 13 15 17 12 13 7 10 11 10 6 6 17 27 37 35 9 15 17 17 6 8 5 6 13 9 11 11 15 13 19 18 26 30 30 36 37
6 3 6 4 3 5 5 5 11 8 9 12 8 9 3 10 10 9 4 12 16 12 14 18 18 13 12 13 11 6 11 12 10 14 15 14 20 32 41 30 43 42 32 34 40
7 10 14 7 15 5 4 3 5 5 8 10 11 20 11 13 15 23 5 1 11 10 9 9 12 9 9 6 9 7 8 9 4 8 14 13 1 15 30 43 39 44 38 38 43
7 4 5 9 10 3 4 4 8 19 15 20 20 13 12 7 26 36 32 18 22 7 4 5 13 9 10 5 7 4 7 4 7 3 15 14 16 15 14 35 50 54 44 42 46
Wind_Direction_500mb
2 359 356 352 346 339 336 332 329 325 319 317 306 300 287 278 265 261 252 241 261 261 300 323 331 334 322 247 191 168 74 121 195 135 126 145 124 150 114 133 95 212 155 162 163
359 357 354 351 347 341 337 334 327 324 317 316 311 303 297 291 280 250 240 255 260 274 303 321 334 341 333 251 212 123 118 205 206 154 125 116 120 124 116 135 89 103 138 157 160
356 354 352 351 347 342 336 333 329 322 317 315 313 310 301 303 302 258 272 259 250 258 294 314 334 348 318 316 184 127 164 178 213 144 124 118 111 118 124 110 148 144 153 165 172
353 352 348 346 345 339 335 332 326 321 314 312 310 311 301 293 218 52 266 258 253 247 278 311 320 335 310 352 318 124 149 173 156 142 123 126 119 135 147 171 155 145 149 164 178
347 345 344 342 341 339 333 328 324 320 312 306 308 314 306 267 253 253 255 245 281 258 272 304 316 354 4 319 304 135 172 174 148 140 130 128 125 135 126 160 158 155 162 168 179
341 338 337 336 336 336 332 327 321 315 308 299 300 309 297 270 226 233 252 271 301 274 289 299 307 325 304 294 220 268 139 138 129 120 134 119 133 113 160 160 162 169 176 179 183
340 335 331 330 329 331 330 326 320 309 303 295 298 303 283 243 233 229 232 267 246 285 294 293 312 313 315 317 301 121 106 38 146 138 109 118 73 146 165 164 171 183 189 194 196
339 334 330 326 324 326 327 323 316 305 299 292 289 300 267 266 236 220 239 255 276 265 285 305 312 305 218 304 348 97 32 120 229 145 164 78 191 182 167 170 182 191 196 204 208
336 332 327 323 319 320 325 319 310 299 292 288 288 289 269 296 249 225 231 253 276 248 270 292 303 297 9 57 17 28 169 228 209 205 148 209 153 192 178 177 187 197 200 210 218
335 331 326 321 316 318 324 319 307 296 297 294 270 292 263 353 320 226 228 246 290 297 291 271 62 36 44 64 201 150 88 294 212 208 192 190 216 176 191 188 195 197 200 209 219
331 330 326 321 314 320 329 335 341 337 301 263 277 269 283 298 304 234 225 245 246 281 124 14 51 257 243 199 195 257 217 226 231 217 180 208 163 180 191 199 198 198 211 210 216
329 328 324 323 313 318 338 38 51 342 298 277 262 264 264 275 296 241 208 211 172 186 131 12 232 253 259 271 293 3 312 291 276 183 183 153 212 184 186 205 197 188 208 214 212
322 325 325 327 316 316 350 66 351 328 248 289 254 250 254 232 227 248 204 205 160 167 178 179 238 19 358 319 354 317 216 284 252 75 39 114 30 171 209 212 204 193 202 204 211
318 320 324 331 314 316 101 356 340 328 38 278 252 245 199 196 264 234 237 191 243 194 159 236 266 236 284 279 126 293 216 275 208 112 197 121 243 222 179 204 170 177 196 207 209
313 315 316 320 307 305 288 332 346 32 342 216 226 230 171 168 324 196 204 201 181 181 132 231 178 174 241 237 152 254 260 264 263 151 100 357 102 266 152 186 184 186 195 205 200
307 309 305 308 303 295 273 321 136 41 255 329 148 182 132 218 239 9 163 177 210 163 293 219 191 188 233 315 203 263 306 40 38 83 66 217 141 343 222 210 189 192 201 164 191
303 303 294 291 289 280 293 220 46 159 319 335 333 55 49 83 264 13 80 140 156 123 276 332 289 273 196 314 24 104 59 317 2 14 211 309 68 230 289 331 201 170 148 170 180
303 299 283 277 277 254 182 57 181 267 258 309 316 251 164 157 231 154 122 213 151 101 113 183 311 192 170 189 221 230 157 167 190 202 239 329 46 272 301 21 110 160 166 187 196
305 301 284 280 240 203 181 97 208 216 300 350 331 33 352 359 332 139 193 206 206 166 171 158 263 282 169 243 134 275 203 202 107 22 83 277 88 33 328 50 48 102 132 178 208
313 310 292 242 194 175 101 223 230 221 356 9 310 54 352 322 329 150 201 201 213 183 170 223 289 239 276 185 280 168 165 52 355 131 136 298 210 208 199 147 164 185 173 187 199
319 319 330 148 159 168 163 224 258 276 331 324 297 332 240 286 200 203 221 257 201 198 166 149 139 260 172 198 223 338 5 31 115 106 150 165 258 185 179 186 187 193 184 167 142
334 347 130 145 94 89 159 196 230 263 293 253 234 214 229 264 289 237 199 227 197 154 166 193 163 242 235 242 239 199 211 167 135 216 103 143 263 150 180 183 169 188 178 148 129
339 302 166 181 136 228 280 275 250 264 230 255 268 220 243 263 252 205 208 250 245 162 184 172 246 277 306 350 358 221 164 133 119 92 187 145 231 218 153 152 203 202 159 133 127
343 22 142 217 274 108 36 286 264 295 280 231 247 233 267 256 212 284 298 298 324 218 215 150 141 165 215 215 181 313 217 181 121 120 167 215 144 182 172 179 194 190 154 129 120
2 344 17 266 297 343 182 308 303 291 260 313 300 232 4 297 295 234 265 319 329 337 147 142 198 170 228 227 170 218 251 186 181 166 149 205 185 181 184 176 188 187 190 161 144
36 9 351 304 301 258 73 89 266 324 244 268 227 292 247 212 229 279 224 239 249 323 127 299 200 137 203 235 217 233 22 114 83 129 78 100 161 115 143 160 168 176 176 171 160
8 4 330 307 318 64 152 322 285 330 264 246 280 297 274 234 297 271 257 234 240 191 277 139 144 108 213 163 133 16 181 136 119 72 144 149 213 145 157 165 176 175 176 167 169
Wind_Speed_850mb
22 23 23 22 24 24 25 25 23 18 18 15 15 17 18 22 26 34 43 29 14 17 19 21 25 29 28 9 17 11 8 2 7 7 7 31 14 13 7 30 4 12 18 47 54
24 25 25 24 24 25 26 25 25 20 18 16 15 16 19 21 27 39 34 26 27 23 23 28 34 39 19 4 6 8 7 13 9 11 11 22 34 24 11 12 20 37 42 56 49
27 26 26 26 25 26 27 26 25 24 19 19 17 16 17 18 24 27 22 24 27 23 20 26 28 19 10 10 8 9 11 7 5 21 45 34 28 15 34 5 35 53 62 56 51
28 29 28 27 26 26 28 27 26 23 22 19 19 17 16 13 8 3 5 14 19 18 20 21 18 23 8 10 10 8 10 12 17 33 32 20 27 22 10 18 44 50 56 56 54
27 27 28 28 28 27 28 28 27 24 22 20 21 17 16 13 20 6 4 5 5 13 18 16 21 9 9 14 9 6 13 13 27 40 39 45 34 15 22 41 47 51 55 52 48
26 27 28 29 29 28 28 28 27 24 20 20 21 18 16 10 16 15 9 4 7 11 16 13 13 27 16 13 1 9 14 25 29 33 33 29 27 14 29 48 45 51 54 50 44
29 28 28 29 29 29 29 30 27 24 21 18 22 24 25 38 14 25 15 7 3 6 11 15 20 21 28 13 16 33 11 6 11 19 12 54 0 14 51 55 51 52 51 50 44
31 31 30 31 31 29 29 28 26 22 20 17 19 23 22 17 33 26 18 12 9 9 13 13 27 27 6 16 11 16 10 6 7 10 31 4 7 14 56 59 51 49 50 53 53
31 31 31 32 32 29 27 27 21 20 18 18 17 14 23 14 24 28 20 14 12 11 13 14 18 6 7 6 9 11 10 8 4 17 11 4 8 29 54 54 51 50 51 58 55
32 32 32 33 33 29 25 24 15 18 15 18 21 14 19 7 10 29 29 20 14 15 7 3 4 7 8 9 4 5 3 4 12 20 15 13 10 32 51 49 49 52 51 61 61
33 33 32 32 32 29 23 13 9 4 19 24 27 32 51 30 26 22 28 27 21 9 3 8 9 12 15 11 8 5 7 13 17 15 17 30 13 40 49 44 39 45 50 60 70
35 36 35 32 30 24 17 13 16 16 25 34 41 51 55 52 20 12 26 13 11 8 4 9 8 15 4 5 5 5 10 24 15 12 29 16 11 34 41 51 45 40 51 61 48
36 36 35 32 27 13 10 11 24 24 9 26 29 32 34 18 17 20 20 26 7 10 8 12 15 11 5 12 13 6 8 19 17 10 7 14 6 14 17 18 32 39 64 55 57
37 37 37 31 15 11 6 18 26 1 8 14 8 13 27 17 11 30 29 25 3 20 13 11 9 11 10 14 10 15 6 20 7 9 9 7 5 13 11 18 23 48 64 72 64
37 37 36 32 29 15 12 15 11 2 6 4 7 2 25 23 2 14 22 35 16 11 13 15 6 2 10 17 10 23 14 17 26 13 11 2 9 10 10 13 14 38 66 76 58
38 36 38 34 27 13 9 7 4 11 12 12 7 5 9 3 1 4 16 12 11 6 3 12 1 4 9 7 11 18 14 11 9 8 5 7 8 6 8 16 9 26 42 20 29
41 33 38 34 19 7 6 1 9 6 12 13 6 2 6 1 3 6 5 7 11 8 9 16 14 9 5 15 4 8 12 6 7 9 10 11 10 12 17 8 4 24 30 30 32
41 37 35 35 26 16 5 9 6 5 12 8 10 1 12 11 7 6 6 3 2 10 6 12 15 13 6 14 15 11 15 10 10 8 5 9 6 3 10 11 23 32 42 40 36
39 37 34 24 24 27 13 6 14 11 8 15 17 12 12 8 3 5 13 13 14 16 16 10 13 6 6 4 11 5 6 7 14 7 8 4 2 5 7 5 14 15 33 28 31
38 35 21 18 23 38 8 10 9 9 8 9 6 4 10 7 6 10 14 11 13 21 16 13 9 10 11 2 5 11 9 6 6 8 4 8 6 10 9 15 13 15 27 37 34
27 17 13 26 33 25 8 12 9 21 6 5 3 11 9 9 12 13 13 10 14 13 22 14 9 16 5 6 10 8 3 10 11 7 11 7 11 10 18 22 25 24 42 30 20
11 4 6 47 9 6 6 12 9 9 8 13 9 19 11 7 12 10 19 16 33 23 21 19 12 15 22 11 10 10 17 17 9 8 3 8 9 8 20 25 21 37 39 23 18
21 8 19 34 5 3 7 6 7 7 9 8 8 11 7 9 7 12 7 17 48 18 20 16 3 7 22 15 5 9 5 9 12 7 12 12 7 5 10 15 24 24 26 30 28
8 4 8 27 6 6 5 9 7 13 15 17 12 13 7 10 11 10 6 6 17 27 37 35 9 15 17 17 6 8 5 6 13 9 11 11 15 13 19 18 26 30 30 36 37
6 3 6 4 3 5 5 5 11 8 9 12 8 9 3 10 10 9 4 12 16 12 14 18 18 13 12 13 11 6 11 12 10 14 15 14 20 32 41 30 43 42 32 34 40
7 10 14 7 15 5 4 3 5 5 8 10 11 20 11 13 15 23 5 1 11 10 9 9 12 9 9 6 9 7 8 9 4 8 14 13 1 15 30 43 39 44 38 38 43
7 4 5 9 10 3 4 4 8 19 15 20 20 13 12 7 26 36 32 18 22 7 4 5 13 9 10 5 7 4 7 4 7 3 15 14 16 15 14 35 50 54 44 42 46
Wind_Direction_850mb
2 359 356 352 346 339 336 332 329 325 319 317 306 300 287 278 265 261 252 241 261 261 300 323 331 334 322 247 191 168 74 121 195 135 126 145 124 150 114 133 95 212 155 162 163
359 357 354 351 347 341 337 334 327 324 317 316 311 303 297 291 280 250 240 255 260 274 303 321 334 341 333 251 212 123 118 205 206 154 125 116 120 124 116 135 89 103 138 157 160
356 354 352 351 347 342 336 333 329 322 317 315 313 310 301 303 302 258 272 259 250 258 294 314 334 348 318 316 184 127 164 178 213 144 124 118 111 118 124 110 148 144 153 165 172
353 352 348 346 345 339 335 332 326 321 314 312 310 311 301 293 218 52 266 258 253 247 278 311 320 335 310 352 318 124 149 173 156 142 123 126 119 135 147 171 155 145 149 164 178
347 345 344 342 341 339 333 328 324 320 312 306 308 314 306 267 253 253 255 245 281 258 272 304 316 354 4 319 304 135 172 174 148 140 130 128 125 135 126 160 158 155 162 168 179
341 338 337 336 336 336 332 327 321 315 308 299 300 309 297 270 226 233 252 271 301 274 289 299 307 325 304 294 220 268 139 138 129 120 134 119 133 113 160 160 162 169 176 179 183
340 335 331 330 329 331 330 326 320 309 303 295 298 303 283 243 233 229 232 267 246 285 294 293 312 313 315 317 301 121 106 38 146 138 109 118 73 146 165 164 171 183 189 194 196
339 334 330 326 324 326 327 323 316 305 299 292 289 300 267 266 236 220 239 255 276 265 285 305 312 305 218 304 348 97 32 120 229 145 164 78 191 182 167 170 182 191 196 204 208
336 332 327 323 319 320 325 319 310 299 292 288 288 289 269 296 249 225 231 253 276 248 270 292 303 297 9 57 17 28 169 228 209 205 148 209 153 192 178 177 187 197 200 210 218
335 331 326 321 316 318 324 319 307 296 297 294 270 292 263 353 320 226 228 246 290 297 291 271 62 36 44 64 201 150 88 294 212 208 192 190 216 176 191 188 195 197 200 209 219
331 330 326 321 314 320 329 335 341 337 301 263 277 269 283 298 304 234 225 245 246 281 124 14 51 257 243 199 195 257 217 226 231 217 180 208 163 180 191 199 198 198 211 210 216
329 328 324 323 313 318 338 38 51 342 298 277 262 264 264 275 296 241 208 211 172 186 131 12 232 253 259 271 293 3 312 291 276 183 183 153 212 184 186 205 197 188 208 214 212
322 325 325 327 316 316 350 66 351 328 248 289 254 250 254 232 227 248 204 205 160 167 178 179 238 19 358 319 354 317 216 284 252 75 39 114 30 171 209 212 204 193 202 204 211
318 320 324 331 314 316 101 356 340 328 38 278 252 245 199 196 264 234 237 191 243 194 159 236 266 236 284 279 126 293 216 275 208 112 197 121 243 222 179 204 170 177 196 207 209
313 315 316 320 307 305 288 332 346 32 342 216 226 230 171 168 324 196 204 201 181 181 132 231 178 174 241 237 152 254 260 264 263 151 100 357 102 266 152 186 184 186 195 205 200
307 309 305 308 303 295 273 321 136 41 255 329 148 182 132 218 239 9 163 177 210 163 293 219 191 188 233 315 203 263 306 40 38 83 66 217 141 343 222 210 189 192 201 164 191
303 303 294 291 289 280 293 220 46 159 319 335 333 55 49 83 264 13 80 140 156 123 276 332 289 273 196 314 24 104 59 317 2 14 211 309 68 230 289 331 201 170 148 170 180
303 299 283 277 277 254 182 57 181 267 258 309 316 251 164 157 231 154 122 213 151 101 113 183 311 192 170 189 221 230 157 167 190 202 239 329 46 272 301 21 110 160 166 187 196
305 301 284 280 240 203 181 97 208 216 300 350 331 33 352 359 332 139 193 206 206 166 171 158 263 282 169 243 134 275 203 202 107 22 83 277 88 33 328 50 48 102 132 178 208
313 310 292 242 194 175 101 223 230 221 356 9 310 54 352 322 329 150 201 201 213 183 170 223 289 239 276 185 280 168 165 52 355 131 136 298 210 208 199 147 164 185 173 187 199
319 319 330 148 159 168 163 224 258 276 331 324 297 332 240 286 200 203 221 257 201 198 166 149 139 260 172 198 223 338 5 31 115 106 150 165 258 185 179 186 187 193 184 167 142
334 347 130 145 94 89 159 196 230 263 293 253 234 214 229 264 289 237 199 227 197 154 166 193 163 242 235 242 239 199 211 167 135 216 103 143 263 150 180 183 169 188 178 148 129
339 302 166 181 136 228 280 275 250 264 230 255 268 220 243 263 252 205 208 250 245 162 184 172 246 277 306 350 358 221 164 133 119 92 187 145 231 218 153 152 203 202 159 133 127
343 22 142 217 274 108 36 286 264 295 280 231 247 233 267 256 212 284 298 298 324 218 215 150 141 165 215 215 181 313 217 181 121 120 167 215 144 182 172 179 194 190 154 129 120
2 344 17 266 297 343 182 308 303 291 260 313 300 232 4 297 295 234 265 319 329 337 147 142 198 170 228 227 170 218 251 186 181 166 149 205 185 181 184 176 188 187 190 161 144
36 9 351 304 301 258 73 89 266 324 244 268 227 292 247 212 229 279 224 239 249 323 127 299 200 137 203 235 217 233 22 114 83 129 78 100 161 115 143 160 168 176 176 171 160
8 4 330 307 318 64 152 322 285 330 264 246 280 297 274 234 297 271 257 234 240 191 277 139 144 108 213 163 133 16 181 136 119 72 144 149 213 145 157 165 176 175 176 167 169